Regional Weather Roundup
Issued by NWS

Home | Current Version | Previous Version | Text Only | Print | Product List | Glossary Off
Versions: 1 2 3 4 5 6 7 8 9 10 11 12 13 14 15 16 17 18 19 20 21 22 23 24 25 26 27 28 29 30 31 32 33 34 35 36 37 38 39 40 41 42 43 44 45 46 47 48 49 50

000
ASUS43 KLSX 042307
RWRMO

WEATHER SUMMARY FOR MISSOURI
NATIONAL WEATHER SERVICE SPRINGFIELD MO
600 PM CDT SAT JUL 04 2015

NOTE: "FAIR" INDICATES FEW OR NO CLOUDS BELOW 12,000 FEET WITH NO
       SIGNIFICANT WEATHER AND/OR OBSTRUCTIONS TO VISIBILITY.
       CURRENT SKY AND/OR WEATHER CONDITIONS ARE NOT AVAILABLE FOR
       CHILLICOTHE AND FARMINGTON.

MOZ001>031-035>038-043-044-053-054-050000-
...NORTHERN AND WESTERN MISSOURI...

CITY           SKY/WX    TMP DP  RH WIND       PRES   REMARKS
KANSAS CTY INT PTSUNNY   80  60  50 CALM      29.96F
KANSAS C DTWN  MOSUNNY   82  62  50 VRB5      29.95F
LEE`S SUMMIT   MOSUNNY   80  62  54 SE6       29.97F
ST JOSEPH      MOSUNNY   81  62  52 S8        29.95F
CHILLICOTHE      N/A     82  62  50 VRB3      29.97F
KIRKSVILLE     SUNNY     81  58  45 VRB5      29.99F

$$
MOZ066>068-077>081-088>096-101>105-050000-
...SOUTHWEST MISSOURI...

CITY           SKY/WX    TMP DP  RH WIND       PRES   REMARKS
SPRINGFIELD    SUNNY     83  65  54 CALM      29.96F
JOPLIN         MOSUNNY   86  65  49 E6        29.94F

$$
MOZ032>034-039>042-045>050-055>058-069>072-050000-
...CENTRAL MISSOURI...

CITY           SKY/WX    TMP DP  RH WIND       PRES   REMARKS
COLUMBIA       SUNNY     80  63  55 SE6       29.98F
JEFFERSON CITY SUNNY     82  62  50 E3        29.96F
ROLLA          SUNNY     80  64  58 E5        29.97F
SEDALIA        SUNNY     82  64  54 S3        29.98F
WHITEMAN AFB   SUNNY     82  64  55 VRB1      29.95F
WARRENSBURG    MOSUNNY   81  63  54 SE3       29.95F
OSAGE BEACH    SUNNY     82  63  51 CALM      29.97F

$$
MOZ051-052-059>065-050000-
...EAST CENTRAL MISSOURI...

CITY           SKY/WX    TMP DP  RH WIND       PRES   REMARKS
ST LOUIS INTL  MOSUNNY   82  59  45 NE7       29.98S
SPIRIT OF STL  MOSUNNY   81  64  56 E3        29.96F
ST CHARLES     SUNNY     81  63  54 E6        29.97S

$$
MOZ072>076-082>087-097>100-106>115-050000-
...SOUTH CENTRAL AND SOUTHEAST MISSOURI...

CITY           SKY/WX    TMP DP  RH WIND       PRES   REMARKS
CAPE GIRARDEAU NOT AVBL
FARMINGTON     PTSUNNY   79  66  65 E7        30.02S
POPLAR BLUFF   CLOUDY    80  69  69 CALM      29.95R
WEST PLAINS    SUNNY     81  66  60 SE5       29.99S

$$



USA.gov is the U.S. government's official web portal to all federal, state and local government web resources and services.